Howell, MI

2:05 PM EST on December 14, 2017 (GMT -0500)
Livingston County

Weather History for KOZW - October, 2012

Change the Weather History Date:

Tuesday, October 9, 2012

  Actual Average Record
Temperature  
Mean Temperature 48 °F -  
Max Temperature 62 °F 62 °F 80 °F (2011)
Min Temperature 34 °F 42 °F 34 °F (2012)
Degree Days  
Heating Degree Days 17    
Moisture  
Dew Point 29 °F    
Average Humidity 45    
Maximum Humidity 76    
Minimum Humidity 28    
Precipitation  
Precipitation 0.00 in - - ()
Sea Level Pressure  
Sea Level Pressure 29.97 in    
Wind  
Wind Speed 9 mph (South)    
Max Wind Speed 17 mph    
Max Gust Speed 28 mph    
Visibility 10 miles    
Events      
Averages and records for this station are not official NWS values.
T = Trace of Precipitation, MM = Missing Value Source: NWS Daily Summary

Daily Weather History Graph

Daily Weather History Graph

Search for Another Location

Airport or City:

Trip Planner

Search our weather history database for the weather conditions in past years. The results will help you decide how hot, cold, wet, or windy it might be!

Date:

Astronomy

Oct. 09, 2012 Rise Set
Actual Time 7:42 AM EDT 7:02 PM EDT
Civil Twilight 7:14 AM EDT 7:30 PM EDT
Nautical Twilight 6:41 AM EDT 8:03 PM EDT
Astronomical Twilight 6:08 AM EDT 8:36 PM EDT
Moon 1:10 AM EDT (10/9) 3:36 PM EDT (10/9)
Length of Visible Light 12h 16m
Length of Day
11h 20m
Last Quarter, 37% of the Moon is Illuminated
Oct 9
Last Quarter
Oct 15
New
Oct 21
First Quarter
Oct 29
Full
Nov 6
Last Quarter

Hourly Weather History & Observations

Time (EDT) Temp. Windchill Dew Point Humidity Pressure Visibility Wind Dir Wind Speed Gust Speed Precip Events Conditions
12:15 AM 42.4 °F 38.1 °F 25.7 °F 52% 30.10 in 10.0 mi South 6.9 mph - N/A   Clear
12:35 AM 42.3 °F 37.9 °F 25.7 °F 52% 30.09 in 10.0 mi South 6.9 mph - N/A   Clear
12:54 AM 42.1 °F 38.4 °F 25.7 °F 52% 30.09 in 10.0 mi South 5.8 mph - N/A   Clear
1:15 AM 41.0 °F 37.1 °F 26.4 °F 56% 30.08 in 10.0 mi SSE 5.8 mph - N/A   Clear
1:35 AM 39.2 °F 35.0 °F 26.6 °F 61% 30.08 in 10.0 mi SSE 5.8 mph - N/A   Clear
1:54 AM 39.9 °F 35.8 °F 27.0 °F 60% 30.08 in 10.0 mi SSE 5.8 mph - N/A   Clear
2:15 AM 41.0 °F 36.4 °F 26.6 °F 57% 30.08 in 10.0 mi South 6.9 mph - N/A   Clear
2:55 AM 40.1 °F 35.3 °F 26.8 °F 59% 30.08 in 10.0 mi South 6.9 mph - N/A   Clear
3:15 AM 40.6 °F 35.4 °F 26.6 °F 57% 30.08 in 10.0 mi South 8.1 mph - N/A   Clear
3:55 AM 41.0 °F 35.8 °F 26.6 °F 57% 30.06 in 10.0 mi South 8.1 mph - N/A   Clear
4:14 AM 41.0 °F 35.2 °F 26.6 °F 57% 30.06 in 10.0 mi South 9.2 mph - N/A   Clear
4:35 AM 40.5 °F 35.1 °F 26.8 °F 58% 30.06 in 10.0 mi South 8.1 mph - N/A   Clear
4:55 AM 40.3 °F 34.9 °F 27.3 °F 60% 30.06 in 10.0 mi South 8.1 mph - N/A   Clear
5:14 AM 39.7 °F 37.6 °F 27.3 °F 61% 30.06 in 10.0 mi SSW 3.5 mph - N/A   Clear
5:35 AM 39.6 °F 37.4 °F 27.5 °F 62% 30.06 in 10.0 mi South 3.5 mph - N/A   Clear
5:55 AM 34.9 °F 30.8 °F 28.0 °F 76% 30.06 in 10.0 mi SE 4.6 mph - N/A   Clear
6:14 AM 37.0 °F 34.5 °F 29.3 °F 74% 30.06 in 10.0 mi SSE 3.5 mph - N/A   Clear
6:35 AM 39.7 °F 35.6 °F 29.3 °F 66% 30.06 in 10.0 mi South 5.8 mph - N/A   Clear
6:55 AM 40.3 °F 36.3 °F 28.9 °F 64% 30.06 in 10.0 mi South 5.8 mph - N/A   Clear
7:14 AM 40.1 °F 35.3 °F 29.1 °F 65% 30.06 in 10.0 mi South 6.9 mph - N/A   Scattered Clouds
7:55 AM 41.2 °F 36.6 °F 29.3 °F 63% 30.05 in 10.0 mi South 6.9 mph - N/A   Clear
8:15 AM 41.9 °F 36.3 °F 29.1 °F 61% 30.05 in 10.0 mi South 9.2 mph - N/A   Clear
8:35 AM 41.2 °F 36.0 °F 29.3 °F 63% 30.05 in 10.0 mi South 8.1 mph - N/A   Clear
8:54 AM 43.3 °F 38.1 °F 30.0 °F 59% 30.05 in 10.0 mi South 9.2 mph - N/A   Clear
9:15 AM 45.3 °F 40.1 °F 30.2 °F 56% 30.05 in 10.0 mi South 10.4 mph - N/A   Clear
9:35 AM 48.0 °F - 30.0 °F 50% 30.05 in 10.0 mi SSW 12.7 mph 18.4 mph N/A   Clear
9:55 AM 49.5 °F - 30.2 °F 48% 30.04 in 10.0 mi SSW 15.0 mph 19.6 mph N/A   Clear
10:15 AM 51.3 °F - 29.8 °F 44% 30.04 in 10.0 mi SSW 11.5 mph 18.4 mph N/A   Clear
10:34 AM 52.5 °F - 29.8 °F 42% 30.03 in 10.0 mi SSW 11.5 mph 21.9 mph N/A   Clear
10:55 AM 54.1 °F - 29.5 °F 39% 30.03 in 10.0 mi SSW 15.0 mph 18.4 mph N/A   Clear
11:15 AM 55.0 °F - 30.0 °F 38% 30.03 in 10.0 mi SSW 12.7 mph 21.9 mph N/A   Clear
11:34 AM 55.9 °F - 30.2 °F 37% 30.02 in 10.0 mi SSW 15.0 mph 20.7 mph N/A   Clear
11:55 AM 57.0 °F - 30.4 °F 36% 30.02 in 10.0 mi SSW 13.8 mph 20.7 mph N/A   Clear
12:15 PM 57.9 °F - 30.4 °F 35% 30.01 in 10.0 mi SW 15.0 mph 21.9 mph N/A   Clear
12:34 PM 58.8 °F - 30.2 °F 34% 30.00 in 10.0 mi SSW 15.0 mph 26.5 mph N/A   Clear
12:55 PM 59.7 °F - 30.6 °F 33% 29.99 in 10.0 mi SSW 16.1 mph 21.9 mph N/A   Clear
1:14 PM 61.0 °F - 30.4 °F 32% 29.98 in 10.0 mi SSW 15.0 mph 20.7 mph N/A   Clear
1:35 PM 61.2 °F - 29.7 °F 30% 29.97 in 10.0 mi SW 16.1 mph 21.9 mph N/A   Clear
1:55 PM 61.3 °F - 28.6 °F 29% 29.96 in 10.0 mi South 16.1 mph 27.6 mph N/A   Clear
2:14 PM 61.9 °F - 28.9 °F 29% 29.94 in 10.0 mi SSW 15.0 mph 23.0 mph N/A   Clear
2:35 PM 61.7 °F - 28.0 °F 28% 29.93 in 10.0 mi SSW 15.0 mph 24.2 mph N/A   Clear
2:55 PM 62.1 °F - 28.8 °F 28% 29.92 in 10.0 mi SSW 15.0 mph 24.2 mph N/A   Clear
3:14 PM 61.9 °F - 28.0 °F 28% 29.92 in 10.0 mi SSW 15.0 mph 25.3 mph N/A   Clear
3:35 PM 62.1 °F - 28.2 °F 28% 29.91 in 10.0 mi SSW 12.7 mph 21.9 mph N/A   Clear
3:55 PM 61.7 °F - 28.2 °F 28% 29.91 in 10.0 mi SSW 12.7 mph 24.2 mph N/A   Clear
4:15 PM 62.1 °F - 28.0 °F 28% 29.89 in 10.0 mi South 17.3 mph 21.9 mph N/A   Clear
4:35 PM 61.5 °F - 28.4 °F 29% 29.89 in 10.0 mi South 13.8 mph 23.0 mph N/A   Clear
4:55 PM 61.2 °F - 28.6 °F 29% 29.88 in 10.0 mi South 16.1 mph - N/A   Clear
5:15 PM 61.0 °F - 28.6 °F 29% 29.88 in 10.0 mi South 16.1 mph - N/A   Clear
5:35 PM 60.3 °F - 28.4 °F 30% 29.88 in 10.0 mi South 11.5 mph 23.0 mph N/A   Clear
5:55 PM 60.4 °F - 28.6 °F 30% 29.88 in 10.0 mi SSW 13.8 mph 20.7 mph N/A   Clear
6:15 PM 59.9 °F - 29.1 °F 31% 29.88 in 10.0 mi SSW 10.4 mph 18.4 mph N/A   Clear
6:35 PM 59.0 °F - 29.3 °F 32% 29.88 in 10.0 mi South 9.2 mph 17.3 mph N/A   Clear
6:55 PM 57.7 °F - 30.0 °F 35% 29.87 in 10.0 mi South 10.4 mph - N/A   Clear
7:15 PM 56.8 °F - 30.2 °F 36% 29.87 in 10.0 mi South 9.2 mph - N/A   Clear
7:34 PM 56.1 °F - 30.6 °F 38% 29.87 in 10.0 mi South 8.1 mph - N/A   Clear
7:55 PM 54.7 °F - 31.1 °F 41% 29.87 in 10.0 mi South 5.8 mph - N/A   Clear
8:15 PM 54.0 °F - 31.6 °F 43% 29.88 in 10.0 mi South 5.8 mph - N/A   Clear
8:34 PM 53.6 °F - 31.8 °F 44% 29.87 in 10.0 mi South 6.9 mph - N/A   Clear
8:55 PM 54.9 °F - 31.6 °F 41% 29.87 in 10.0 mi South 10.4 mph - N/A   Mostly Cloudy
9:15 PM 55.0 °F - 31.5 °F 41% 29.86 in 10.0 mi South 10.4 mph - N/A   Scattered Clouds
9:34 PM 55.2 °F - 31.6 °F 41% 29.86 in 10.0 mi South 8.1 mph - N/A   Clear
9:55 PM 54.5 °F - 32.0 °F 42% 29.85 in 10.0 mi South 6.9 mph - N/A   Clear
10:15 PM 54.5 °F - 32.0 °F 42% 29.85 in 10.0 mi South 8.1 mph - N/A   Clear
10:34 PM 54.0 °F - 32.0 °F 43% 29.83 in 10.0 mi South 11.5 mph - N/A   Clear
10:55 PM 53.6 °F - 32.2 °F 44% 29.83 in 10.0 mi South 9.2 mph - N/A   Clear
11:15 PM 53.2 °F - 32.7 °F 46% 29.82 in 10.0 mi South 11.5 mph - N/A   Clear
11:35 PM 52.7 °F - 32.9 °F 47% 29.81 in 10.0 mi South 9.2 mph - N/A   Clear
11:55 PM 52.7 °F - 33.1 °F 47% 29.80 in 10.0 mi South 10.4 mph - N/A   Clear